Location: Franzen
(48.6167°N, 15.3833°E)
Time: 08:39:14
(UTC+00:00)

A-11 Canister half - Pass Details

Date: 28 July 2021
Orbit: 1515 x 1685 km, 47.2° (Epoch: 21 September)

Event Time Altitude Azimuth Distance (km) Brightness Sun altitude
Rises 20:26:34 0° 274° (W) 4,883 12.3 -13.9°
Reaches altitude 10° 20:29:40 10° 274° (W) 3,912 11.7 -14.2°
Maximum altitude 20:39:47 81° 189° (S) 1,703 9.1 -15.2°
Drops below altitude 10° 20:49:58 10° 104° (ESE) 3,944 10.7 -16.2°
Enters shadow 20:50:58 - 104° (ESE) 4,251 10.9 -16.3°
Sets 20:53:07 0° 104° (ESE) 4,923 - -16.5°
